EW6129 Weather Reports


time (UTC)temp
C
wind
direction
speed
KPH
gust
KPH
rain 1hr
cm
rain 24hr
cm
rain mn
cm
humidity
%
barometer
mb
20260502214718 12 15 0.0 4.8 0.00 0.00 0.00 84 1013.4
20260502213603 11 0 0.0 0.0 0.00 0.00 0.00 84 1013.5
20260502212703 12 0 0.0 0.0 0.00 0.00 0.00 84 1013.5
20260502211803 12 0 0.0 0.0 0.00 0.00 0.00 83 1013.8
20260502210903 12 0 0.0 0.0 0.00 0.00 0.00 82 1013.7
20260502210003 12 0 0.0 0.0 0.00 0.00 0.00 82 1013.9
20260502205403 12 0 0.0 0.0 0.00 0.00 0.00 82 1013.7
20260502204503 12 360 0.0 3.2 0.00 0.00 0.00 82 1013.9
20260502203603 13 4 1.6 4.8 0.00 0.00 0.00 82 1013.8
20260502202703 13 8 0.0 3.2 0.00 0.00 0.00 82 1014.1
20260502202018 13 2 0.0 3.2 0.00 0.00 0.00 81 1014.1
20260502200903 13 360 1.6 4.8 0.00 0.00 0.00 82 1014.2
20260502200218 13 360 1.6 4.8 0.00 0.00 0.00 82 1014.1
20260502195618 13 347 1.6 6.4 0.00 0.00 0.00 82 1014.2
20260502194717 13 325 0.0 3.2 0.00 0.00 0.00 82 1014.2
20260502193816 14 325 0.0 4.8 0.00 0.00 0.00 81 1014.2
20260502192703 14 326 1.6 4.8 0.00 0.00 0.00 80 1014.2
20260502191803 15 327 3.2 6.4 0.00 0.00 0.00 80 1014.3
20260502190903 15 319 3.2 6.4 0.00 0.00 0.00 79 1014.2
20260502190003 15 318 3.2 6.4 0.00 0.00 0.00 79 1014.2
20260502185403 15 321 3.2 9.7 0.00 0.00 0.00 79 1014.3
20260502184503 16 316 3.2 9.7 0.00 0.00 0.00 79 1014.2
20260502183603 16 315 3.2 8.0 0.00 0.00 0.00 78 1014.2
20260502181803 17 318 4.8 12.9 0.00 0.00 0.00 74 1014.4
20260502181118 17 313 4.8 12.9 0.00 0.00 0.00 70 1014.4
20260502163817 21 258 4.8 12.9 0.00 0.00 0.00 56 1014.9
20260502162703 21 242 4.8 14.5 0.00 0.00 0.00 61 1014.9
20260502161804 21 243 6.4 17.7 0.00 0.00 0.00 62 1015.1
20260502160903 21 245 6.4 16.1 0.00 0.00 0.00 64 1015.1
20260502151803 21 247 9.7 17.7 0.00 0.00 0.00 66 1015.3
20260502150903 21 247 8.0 19.3 0.00 0.00 0.00 68 1015.4
20260502123603 22 220 9.7 22.5 0.00 0.00 0.00 62 1016.0
20260502122917 21 229 8.0 16.1 0.00 0.00 0.00 62 1016.0
20260502121803 21 222 8.0 17.7 0.00 0.00 0.00 64 1016.1
20260502120903 21 214 8.0 19.3 0.00 0.00 0.00 64 1016.0
20260502115403 20 231 8.0 24.1 0.00 0.00 0.00 65 1016.5
20260502114503 21 235 6.4 22.5 0.00 0.00 0.00 65 1016.5
20260502113603 20 232 8.0 16.1 0.00 0.00 0.00 67 1016.5
20260502112703 19 230 6.4 16.1 0.00 0.00 0.00 68 1016.6
20260502111803 18 229 4.8 11.3 0.00 0.00 0.00 68 1016.7
20260502110903 17 237 4.8 9.7 0.00 0.00 0.00 67 1016.7
20260502110217 17 239 4.8 11.3 0.00 0.00 0.00 68 1016.7
20260502105403 17 236 4.8 11.3 0.00 0.00 0.00 67 1016.7
20260502104504 16 235 4.8 9.7 0.00 0.00 0.00 65 1016.6
20260502103603 16 232 4.8 9.7 0.00 0.00 0.00 64 1016.7
20260502102703 16 221 3.2 8.0 0.00 0.00 0.00 64 1016.7
20260502101117 16 160 3.2 9.7 0.00 0.00 0.00 62 1016.9
20260502090903 18 203 8.0 19.3 0.00 0.00 0.00 57 1016.8
20260502090218 18 200 6.4 14.5 0.00 0.00 0.00 57 1016.8
20260502070903 16 180 6.4 19.3 0.00 0.00 0.00 55 1016.8
20260502070004 15 158 6.4 14.5 0.00 0.00 0.00 57 1016.8
20260502065403 15 135 4.8 12.9 0.00 0.00 0.00 57 1016.7
20260502064503 15 133 3.2 6.4 0.00 0.00 0.00 58 1016.7
20260502063603 14 154 3.2 11.3 0.00 0.00 0.00 58 1016.6
20260502062703 13 147 3.2 11.3 0.00 0.00 0.00 59 1016.7
20260502061803 13 156 4.8 12.9 0.00 0.00 0.00 59 1016.7
20260502060903 13 169 4.8 11.3 0.00 0.00 0.00 60 1016.8
20260502060003 13 164 4.8 11.3 0.00 0.00 0.00 59 1016.9
20260502055403 12 158 4.8 11.3 0.00 0.00 0.00 60 1016.8
20260502054503 12 162 6.4 12.9 0.00 0.00 0.00 61 1016.9
20260502053603 12 155 4.8 12.9 0.00 0.00 0.00 62 1016.9
20260502052703 12 155 4.8 9.7 0.00 0.00 0.00 62 1016.9
20260502051803 11 158 4.8 11.3 0.00 0.00 0.00 63 1016.9
20260502050903 11 160 4.8 9.7 0.00 0.00 0.00 63 1017.0
20260502050004 11 159 4.8 12.9 0.00 0.00 0.00 63 1017.0
20260502045403 11 156 4.8 12.9 0.00 0.00 0.00 64 1017.0
20260502044504 11 154 4.8 11.3 0.00 0.00 0.00 64 1017.0
20260502043603 11 147 4.8 11.3 0.00 0.00 0.00 64 1017.0
20260502042703 11 159 4.8 11.3 0.00 0.00 0.00 64 1017.1
20260502041803 11 151 4.8 11.3 0.00 0.00 0.00 63 1017.1
20260502040903 11 150 6.4 11.3 0.00 0.00 0.00 65 1017.1
20260502040004 11 151 4.8 9.7 0.00 0.00 0.00 64 1017.1
20260502035403 11 150 4.8 9.7 0.00 0.00 0.00 64 1017.2
20260502034503 11 148 4.8 9.7 0.00 0.00 0.00 64 1017.2
20260502033816 11 149 4.8 9.7 0.00 0.00 0.00 65 1017.3
20260502032703 11 150 4.8 8.0 0.00 0.00 0.00 66 1017.4
20260502031803 11 149 3.2 6.4 0.00 0.00 0.00 67 1017.4
20260502030903 11 158 3.2 8.0 0.00 0.00 0.00 67 1017.5
20260502030218 11 152 3.2 8.0 0.00 0.00 0.00 67 1017.6
20260502025403 11 145 3.2 8.0 0.00 0.00 0.00 67 1017.5
20260502024503 11 148 4.8 8.0 0.00 0.00 0.00 67 1017.6
20260502023603 11 143 3.2 8.0 0.00 0.00 0.00 67 1017.7
20260502022703 11 139 3.2 8.0 0.00 0.00 0.00 68 1017.8
20260502022017 11 138 3.2 8.0 0.00 0.00 0.00 68 1017.9
20260502020903 11 146 1.6 6.4 0.00 0.00 0.00 70 1017.9
20260502020004 11 146 1.6 4.8 0.00 0.00 0.00 70 1018.0
20260502015403 11 149 3.2 9.7 0.00 0.00 0.00 70 1018.0
20260502014503 11 150 1.6 4.8 0.00 0.00 0.00 70 1018.1
20260502013603 11 152 1.6 8.0 0.00 0.00 0.00 69 1018.2
20260502012703 11 149 3.2 4.8 0.00 0.00 0.00 68 1018.3
20260502012016 11 141 3.2 4.8 0.00 0.00 0.00 68 1018.4
20260502010903 12 140 1.6 4.8 0.00 0.00 0.00 67 1018.5
20260502010004 11 141 1.6 4.8 0.00 0.00 0.00 68 1018.6
20260502005403 11 141 1.6 3.2 0.00 0.00 0.00 68 1018.7
20260502004503 11 141 0.0 3.2 0.00 0.00 0.00 68 1018.9
20260502003603 12 141 0.0 3.2 0.00 0.00 0.00 68 1019.0
20260502002703 12 141 1.6 4.8 0.00 0.00 0.00 67 1019.0
20260502001803 12 142 1.6 4.8 0.00 0.00 0.00 68 1019.1
20260502000903 12 142 1.6 3.2 0.00 0.00 0.00 68 1019.1
20260502000004 12 0 0.0 0.0 0.00 0.00 0.00 67 1019.2
20260501235403 12 142 0.0 3.2 0.00 0.00 0.00 67 1019.2
20260501234503 12 142 1.6 3.2 0.00 0.00 0.00 66 1019.3
20260501233603 12 142 1.6 3.2 0.00 0.00 0.00 66 1019.5
20260501232703 12 142 1.6 3.2 0.00 0.00 0.00 66 1019.4
20260501231803 12 142 1.6 3.2 0.00 0.00 0.00 66 1019.3
20260501230903 12 142 0.0 3.2 0.00 0.00 0.00 65 1019.4
20260501230003 13 142 0.0 3.2 0.00 0.00 0.00 65 1019.5
20260501225403 13 142 0.0 3.2 0.00 0.00 0.00 64 1019.5
20260501224503 13 142 1.6 3.2 0.00 0.00 0.00 61 1019.6